#timestamp,LO_Frequency,Hit,StdDev 
1512201615.3,286047002.5,N
1512201635.1,286047002.8,N
1512201655.8,286047002.8,N
1512201675.7,286046999.8,N
1512201695.5,286046999.9,N
1512201715.4,286047002.6,N
1512201735.2,286047002.2,N
1512201755.0,286047002.1,N
1512201755.9,286047002.1,N
1512201775.8,286047003.9,N
1512201795.6,286047001.3,N
1512201815.4,286047004.4,N
1512201835.3,286047004.3,N
1512201855.1,286047001.4,N
1512201875.9,286047001.5,N
1512201895.7,286046999.9,N
1512201915.5,286046999.9,N
1512201935.4,286046999.7,N
1512201955.2,286047001.6,N
1512201975.0,286047002.7,N
1512201975.9,286047002.7,N
1512201995.8,286047002.4,N
1512202045.7,286047002.1,E
1512202055.6,286046999.9,N
1512202075.4,286046997.3,P
1512202095.3,286046998.0,N
1512202115.1,286046995.8,Y
1512202116.0,286046995.8,P
1512202135.8,286046997.9,N
1512202155.7,286046997.7,N
1512202175.5,286046996.8,Y
1512202195.4,286047000.6,P
1512202215.2,286047000.4,N
1512202235.0,286046999.8,N
1512202235.9,286046999.8,N
1512202255.8,286047000.3,N
1512202275.6,286046998.7,N
1512202295.4,286046998.2,N
1512202315.3,286046998.5,N
1512202335.1,286047000.8,N
1512202355.9,286046998.7,N
1512202375.7,286046998.6,N
1512202395.5,286046999.9,N
1512202415.4,286047002.4,N
1512202435.2,286047001.9,N
1512202455.0,286046999.4,N
1512202455.9,286046999.4,N
1512202475.8,286046998.6,N
1512202495.6,286046998.4,N
1512202515.5,286046998.9,N
1512202535.3,286047000.8,N
1512202555.1,286047001.0,N
1512202575.9,286046998.4,N
1512202595.7,286046998.5,N
1512202615.5,286047001.2,N
1512202635.4,286046998.2,N
1512202655.2,286047001.2,N
1512202675.1,286047002.8,N
1512202676.0,286047002.8,N
1512202695.8,286046999.3,N
1512202715.6,286046996.1,N
1512202735.5,286046995.3,Y
1512202755.3,286046996.7,P
1512202775.1,286046997.2,N
1512202795.9,286046998.0,N
1512202815.7,286046996.9,N
1512202835.6,286046996.8,N
1512202855.4,286046996.7,Y
1512202875.2,286047000.1,P
1512202895.1,286046999.9,N
1512202896.0,286046999.9,N
1512202915.8,286046998.5,N
1512202935.7,286047000.7,N
1512202955.5,286047000.8,N
1512202975.3,286046999.2,N
1512202995.2,286047001.1,N
1512203015.0,286046997.0,N
1512203015.9,286046997.0,N
1512203035.7,286046999.6,N
1512203055.6,286046996.7,N
1512203075.4,286046999.6,N
1512203095.3,286046997.1,N
1512203115.1,286046995.9,N
1512203116.0,286046995.9,N
1512203135.8,286046995.9,N
1512203155.7,286046993.4,Y
1512203175.5,286046996.8,P
1512203195.3,286046997.1,P
1512203215.2,286046995.0,P
1512203235.0,286046997.3,N
1512203235.9,286046997.3,N
1512203255.8,286046997.1,N
1512203275.6,286046999.4,N
1512203295.4,286046998.5,N
1512203315.3,286047001.0,N
1512203335.1,286047000.7,N
1512203355.9,286047000.9,N
1512203375.7,286047000.8,N
1512203395.5,286046996.6,N
1512203415.4,286046996.6,N
1512203435.2,286046999.1,N
1512203455.0,286046998.8,N
1512203455.9,286046998.8,N
1512203475.8,286046998.0,N
1512203495.6,286046996.6,N
1512203515.5,286046999.5,N
1512203535.3,286046997.6,N
1512203555.1,286046995.3,N
1512203575.9,286046996.0,N
1512203595.7,286046993.3,Y
1512203615.5,286046997.4,P
1512203635.4,286046997.7,P
1512203655.2,286046995.3,P
1512203675.1,286046997.6,N
1512203676.0,286046997.6,N
1512203695.8,286046995.4,Y
1512203715.6,286046996.5,P
1512203735.5,286046998.7,P
1512203755.3,286046998.9,N
1512203775.2,286046998.4,N
1512203795.9,286047001.2,N
1512203815.7,286046997.8,N
1512203835.6,286046997.2,N
1512203855.4,286046996.5,N
1512203875.2,286046996.6,N
1512203895.1,286046996.8,N
1512203896.0,286046996.8,N
1512203915.8,286046995.0,Y
1512203935.7,286047000.7,P
1512203955.5,286047002.8,N
1512203975.3,286047001.0,N
1512203995.2,286046998.3,N
1512204015.0,286047000.6,N
1512204015.9,286047000.6,N
1512204035.8,286047000.7,N
1512204055.6,286047000.7,N
1512204075.4,286047000.4,N
1512204095.3,286046999.7,N
1512204115.1,286047000.0,N
1512204135.8,286046999.7,N
1512204155.7,286047002.7,N
1512204175.5,286047000.6,N
1512204195.4,286047002.7,N
1512204215.2,286047001.2,N
1512204235.0,286047000.7,N
1512204235.9,286047000.7,N
1512204255.8,286046999.0,N
1512204275.6,286046999.4,N
1512204295.5,286046998.7,N
1512204315.3,286046997.6,N
1512204335.1,286046996.5,N
1512204355.9,286046999.3,N
1512204375.7,286046998.3,N
1512204395.5,286046998.5,N
1512204415.4,286046998.2,N
1512204435.2,286046999.0,N
1512204455.1,286046999.1,N
1512204456.0,286046999.1,N
1512204475.8,286046997.1,N
1512204495.6,286046997.7,N
1512204515.5,286046996.7,N
1512204535.3,286046999.3,N
1512204555.2,286046998.4,N
1512204575.9,286046998.9,N
1512204595.7,286046996.6,N
1512204615.6,286046997.7,N
1512204635.4,286046997.7,N
1512204655.2,286046999.2,N
1512204675.1,286046995.4,N
1512204676.0,286046995.4,N
1512204695.8,286046995.8,N
1512204715.7,286046995.0,N
1512204735.5,286046996.8,N
1512204755.3,286046999.1,N
1512204775.2,286046998.1,N
1512204795.0,286046998.4,N
1512204795.9,286046998.4,N
1512204815.7,286046998.4,N
1512204835.6,286046997.2,N
1512204855.4,286046996.7,N
1512204875.3,286046996.8,N
1512204895.1,286046997.5,N
1512204915.8,286046995.0,Y
1512204935.7,286046999.5,P
1512204955.5,286046999.5,N
1512204975.4,286046998.9,N
1512204995.2,286046999.5,N
1512205015.0,286046997.2,Y
1512205015.9,286046997.2,P
1512205035.8,286046999.2,N
1512205055.6,286046997.3,P
1512205075.5,286046997.2,Y
1512205095.3,286046998.9,P
1512205115.1,286046997.4,P
1512205135.9,286046997.0,P
1512205155.7,286046999.4,N
1512205175.5,286046996.7,Y
1512205195.4,286046999.7,P
